Total_Precipitation_Accumulation
1.83 2.05 2.58 3.27 3.68 4.21 4.71 4.71 4.52 4.61 4.74 4.76 4.53 4.69 4.89 5.19 5.50 5.45 5.35 5.25 5.12 5.02 5.17 5.25 5.23 5.06 5.05 4.99 4.88 4.87 4.81 4.48 4.28 4.33 3.93 3.41 2.96 2.71 2.63 2.62 2.71 2.69 2.62
2.03 2.33 2.86 3.22 3.59 3.94 4.21 4.53 4.68 4.73 4.54 4.91 5.21 5.50 5.86 5.91 6.20 6.44 6.48 6.25 5.95 5.75 5.61 5.68 5.37 5.07 5.01 4.93 4.81 4.71 4.58 4.20 4.05 4.13 4.15 3.59 3.12 2.55 2.20 2.27 2.28 2.36 2.50
2.31 2.68 3.03 3.19 3.41 3.76 4.11 4.46 4.83 4.96 4.91 5.42 5.95 6.40 6.80 6.72 6.77 6.71 6.67 6.61 6.17 5.84 5.65 5.43 5.31 5.15 4.97 4.80 4.78 4.69 4.58 4.27 4.05 3.98 4.21 3.97 3.44 2.84 2.48 2.21 2.20 2.31 2.41
2.10 2.45 2.80 3.26 3.24 3.48 3.90 4.26 4.70 5.14 5.47 5.90 6.38 6.89 7.23 7.46 7.28 6.95 6.65 6.28 5.78 5.49 5.14 4.96 5.07 5.01 4.77 4.53 4.22 4.12 4.13 4.11 3.93 3.82 3.64 3.56 3.43 3.24 2.89 2.55 2.46 2.50 2.47
2.00 2.22 2.38 2.73 3.03 3.28 3.65 4.09 4.45 4.88 5.54 6.31 6.88 7.41 7.75 7.78 7.23 6.63 6.07 5.59 5.15 4.81 4.59 4.55 4.70 4.66 4.41 4.17 3.89 3.71 3.52 3.49 3.61 3.66 3.52 3.38 3.24 3.01 2.92 2.75 2.56 2.50 2.41
2.07 2.24 2.37 2.67 2.90 3.03 3.31 3.86 4.41 4.79 5.36 6.15 6.74 7.08 7.27 7.21 6.76 6.11 5.57 5.12 4.63 4.23 3.92 3.77 3.74 3.73 3.58 3.44 3.37 3.33 3.25 3.22 3.32 3.36 3.30 3.22 3.14 3.03 3.05 2.87 2.58 2.52 2.50
2.28 2.26 2.27 2.37 2.64 2.83 3.10 3.56 4.09 4.58 4.98 5.47 5.97 6.02 6.10 5.86 5.46 5.24 4.93 4.41 3.95 3.58 3.24 3.07 3.00 3.05 3.05 2.96 2.97 3.03 3.03 2.98 3.05 3.02 2.99 2.95 2.79 2.78 2.94 3.05 2.85 2.67 2.49
2.12 2.17 2.15 2.36 2.70 2.98 3.25 3.53 3.78 4.12 4.52 4.70 4.85 4.71 4.57 4.50 4.34 4.12 3.75 3.39 3.11 2.91 2.83 2.76 2.60 2.59 2.64 2.64 2.80 2.77 2.68 2.67 2.70 2.61 2.73 2.74 2.61 2.66 2.76 2.90 3.15 3.13 2.81
1.93 2.02 2.14 2.45 2.72 2.99 3.17 3.42 3.60 3.70 3.70 3.74 3.81 3.74 3.64 3.50 3.44 3.34 3.04 2.76 2.61 2.44 2.44 2.41 2.35 2.24 2.20 2.23 2.27 2.26 2.30 2.37 2.32 2.32 2.35 2.34 2.38 2.48 2.54 2.67 2.99 3.29 3.19
2.01 2.04 2.17 2.44 2.51 2.56 2.75 3.00 3.14 3.33 3.33 3.17 3.08 3.14 3.07 2.88 2.72 2.57 2.42 2.27 2.18 2.13 2.13 2.05 2.01 2.00 2.02 1.97 1.94 1.94 2.01 2.07 2.09 2.13 2.09 2.04 2.05 2.21 2.26 2.36 2.55 2.87 3.12
2.14 2.08 2.22 2.33 2.21 2.15 2.17 2.34 2.57 2.90 2.94 2.84 2.71 2.75 2.67 2.53 2.37 2.24 2.13 2.09 1.97 1.93 1.87 1.88 1.88 1.78 1.76 1.82 1.88 1.87 1.91 2.02 2.00 1.91 1.91 1.90 1.99 2.11 2.10 2.17 2.30 2.49 2.73
2.27 2.15 2.15 2.20 2.13 2.02 1.92 2.04 2.24 2.34 2.34 2.36 2.44 2.56 2.47 2.37 2.22 2.10 2.06 2.02 1.88 1.82 1.82 1.83 1.80 1.63 1.58 1.74 1.81 1.78 1.75 1.86 1.84 1.78 1.84 1.84 1.88 1.98 2.04 2.14 2.26 2.43 2.63
2.52 2.42 2.20 2.12 2.11 1.99 1.97 2.05 2.12 2.10 2.03 2.04 2.04 2.12 2.13 2.07 2.01 1.81 1.75 1.77 1.76 1.74 1.73 1.63 1.62 1.57 1.54 1.63 1.66 1.66 1.62 1.62 1.68 1.68 1.75 1.80 1.88 1.89 1.94 2.03 2.10 2.25 2.36
2.47 2.29 2.20 2.14 2.02 1.97 2.00 2.06 2.01 1.89 1.94 1.96 2.04 1.96 1.97 2.01 2.01 1.91 1.76 1.69 1.67 1.65 1.62 1.56 1.52 1.53 1.53 1.44 1.40 1.43 1.49 1.56 1.52 1.48 1.58 1.64 1.71 1.74 1.85 1.84 1.92 2.03 2.23
2.40 2.26 2.17 2.11 1.93 1.81 1.81 1.78 1.74 1.68 1.73 1.82 1.91 1.94 1.86 1.79 1.79 1.83 1.71 1.52 1.46 1.41 1.49 1.44 1.39 1.40 1.36 1.23 1.25 1.30 1.28 1.38 1.40 1.36 1.38 1.39 1.43 1.45 1.49 1.48 1.69 1.91 2.10
2.54 2.38 2.27 2.17 1.97 1.82 1.72 1.67 1.56 1.48 1.55 1.60 1.76 1.83 1.79 1.71 1.64 1.67 1.65 1.60 1.54 1.49 1.46 1.44 1.39 1.32 1.20 1.18 1.11 1.11 1.16 1.26 1.36 1.43 1.38 1.25 1.21 1.17 1.11 1.17 1.33 1.58 1.83
2.47 2.38 2.34 2.22 2.04 1.91 1.80 1.83 1.65 1.45 1.56 1.59 1.59 1.65 1.70 1.74 1.73 1.68 1.66 1.70 1.72 1.69 1.55 1.42 1.38 1.31 1.23 1.15 0.97 0.92 1.01 1.22 1.36 1.44 1.43 1.17 1.04 1.14 1.11 1.16 1.19 1.29 1.43
2.59 2.57 2.43 2.25 1.99 1.80 1.72 1.70 1.66 1.54 1.56 1.54 1.48 1.50 1.51 1.56 1.59 1.66 1.70 1.71 1.68 1.66 1.62 1.48 1.42 1.34 1.13 1.01 0.86 0.88 0.94 1.10 1.12 1.15 1.25 1.30 1.28 1.16 1.20 1.21 1.29 1.35 1.44
2.49 2.48 2.32 2.20 2.12 1.87 1.75 1.64 1.58 1.60 1.52 1.40 1.33 1.29 1.28 1.36 1.39 1.46 1.60 1.70 1.71 1.61 1.49 1.41 1.37 1.31 1.16 1.06 0.95 0.96 0.97 1.05 0.99 0.93 0.98 1.04 1.09 1.09 1.13 1.23 1.44 1.49 1.59
2.01 1.99 1.90 1.86 1.89 1.72 1.65 1.61 1.57 1.56 1.48 1.33 1.21 1.17 1.22 1.33 1.36 1.40 1.54 1.62 1.67 1.52 1.33 1.27 1.30 1.24 1.21 1.07 0.90 0.86 0.86 0.98 1.01 1.03 1.08 1.01 0.88 0.93 1.03 1.25 1.53 1.69 1.72
1.81 1.72 1.65 1.69 1.66 1.54 1.55 1.56 1.51 1.44 1.29 1.20 1.19 1.21 1.25 1.36 1.38 1.46 1.58 1.51 1.39 1.38 1.30 1.25 1.28 1.17 1.04 0.90 0.76 0.74 0.74 0.87 0.95 0.98 1.03 1.02 0.86 0.77 0.84 1.06 1.31 1.52 1.59
1.81 1.73 1.69 1.61 1.54 1.54 1.58 1.58 1.51 1.30 1.19 1.18 1.23 1.29 1.28 1.22 1.22 1.41 1.52 1.46 1.40 1.35 1.30 1.26 1.20 1.08 0.96 0.82 0.72 0.64 0.60 0.64 0.83 1.02 1.02 1.01 0.95 0.88 0.93 1.06 1.23 1.37 1.56
1.80 1.78 1.70 1.59 1.50 1.49 1.52 1.50 1.36 1.14 1.08 1.19 1.33 1.39 1.32 1.35 1.34 1.34 1.38 1.45 1.47 1.33 1.22 1.17 1.11 1.01 0.94 0.83 0.70 0.60 0.57 0.58 0.69 0.89 0.98 0.94 0.90 0.97 1.17 1.29 1.39 1.55 1.77
1.60 1.57 1.51 1.43 1.36 1.30 1.25 1.22 1.13 1.06 1.14 1.24 1.34 1.38 1.39 1.45 1.42 1.34 1.22 1.18 1.18 1.16 1.09 1.05 0.97 0.96 0.96 0.79 0.67 0.68 0.64 0.65 0.70 0.85 1.02 1.07 1.06 1.18 1.35 1.48 1.56 1.68 1.80
1.52 1.47 1.40 1.28 1.15 1.09 1.04 0.97 0.95 0.97 1.10 1.19 1.26 1.27 1.28 1.32 1.38 1.28 1.15 1.10 1.01 0.95 0.92 0.85 0.77 0.82 0.82 0.70 0.66 0.59 0.62 0.69 0.75 0.84 1.01 1.14 1.17 1.27 1.41 1.52 1.58 1.63 1.65
1.39 1.43 1.32 1.21 1.05 0.98 0.97 0.91 0.86 0.90 1.01 1.08 1.08 1.03 1.07 1.11 1.13 1.17 1.11 0.93 0.78 0.68 0.62 0.61 0.59 0.54 0.54 0.53 0.52 0.53 0.59 0.67 0.78 0.91 1.15 1.22 1.20 1.23 1.30 1.41 1.51 1.50 1.49